Regional Weather Roundup
Issued by NWS Upton, NY

Current Version | Previous Version | Text Only | Print | Product List | Glossary On
Versions: 1 2 3 4 5 6 7 8 9 10 11 12 13 14 15 16 17 18 19 20 21 22 23 24 25 26 27 28 29 30 31 32 33 34 35 36 37 38 39 40 41 42 43 44 45 46 47 48 49 50
287 ASUS41 KOKX 171205 RWROKX Regional Weather Roundup National Weather Service New York NY 700 AM EST SAT FEB 17 2018 Note: "FAIR" indicates few or no clouds below 12,000 feet with no significant weather and/or obstructions to visibility. NYZ071-072-176-178-NJZ106-104-171300- New York City Metro Area CITY SKY/WX TMP DP RH WIND PRES REMARKS Central Park FAIR 28 15 58 MISG 30.41R Bronx Bot Gard N/A 28 16 59 NW2 30.40R Bronx Lehman C N/A 30 16 55 NW3 N/A LaGuardia Arpt FAIR 30 16 56 NW7 30.40R WCI 23 Queens College N/A 32 18 55 NW3 N/A Kennedy Intl MOCLDY 28 17 63 NW8 30.41R WCI 20 Breezy Point N/A N/A N/A N/A N5 N/A Brooklyn Coll N/A 32 18 55 NW7 N/A WCI 26 Staten Island N/A 30 16 55 N6 N/A WCI 24 Newark/Liberty MOCLDY 26 14 60 NE7 30.40R WCI 18 Teterboro FAIR 28 14 55 CALM 30.40R $$ NYZ177-179-078>081-171300- Long Island New York CITY SKY/WX TMP DP RH WIND PRES REMARKS Jones Beach N/A N/A N/A N/A N8 N/A Wantagh N/A 30 19 64 N2 N/A Hempstead N/A 32 21 64 N2 30.42R Matinecock Pt N/A 32 N/A N/A N7 N/A WCI 26 Farmingdale FAIR 28 17 63 NE3 30.40R MacArthur/ISP MOCLDY 28 19 69 N6 30.38R WCI 22 Shirley FAIR 26 20 77 NW6 30.39R WCI 19 Mt Sinai Harb N/A N/A N/A N/A N8 N/A Westhampton FAIR 27 16 63 N3 30.40R East Hampton FAIR 29 15 55 CALM 30.38R Southold N/A 32 18 55 N9 N/A WCI 24 Montauk N/A 33 11 39 N9 30.40R WCI 25 $$ NYZ052-065-067-171300- Hudson Valley CITY SKY/WX TMP DP RH WIND PRES REMARKS White Plains FAIR 23 15 71 N3 30.36R Larchmont Harb N/A N/A N/A N/A NW5 N/A Croton On Huds N/A N/A N/A N/A CALM N/A Somers N/A 27 18 69 N1 N/A Brewster N/A 23 16 74 N1 N/A Newburgh PTCLDY 21 18 86 CALM 30.37R Montgomery FAIR 23 13 65 CALM 30.35R Otisville N/A 23 14 68 NW1 N/A Warwick N/A 21 14 73 W3 N/A Suffern N/A 25 16 68 SE1 N/A Poughkeepsie FAIR 23 16 74 NE3 30.37R Albany FAIR 24 13 62 W12 30.41R WCI 13 $$ NJZ001-105-106-008-010-013-015-019>022-104-171300- New Jersey CITY SKY/WX TMP DP RH WIND PRES REMARKS Newark/Liberty MOCLDY 26 14 60 NE7 30.40R WCI 18 Teterboro FAIR 28 14 55 CALM 30.40R Caldwell FAIR 24 14 65 CALM 30.40R Somerville FAIR 24 15 68 MISG 30.38R Linden FAIR 28 14 56 CALM 30.41R Perth Amboy N/A N/A N/A N/A N5 N/A Sussex FAIR 20 15 81 CALM 30.36R Andover N/A 21 14 74 CALM 30.37R Trenton FAIR 27 14 58 N5 30.39R WCI 22 Millville FAIR 30 16 56 NE9 30.38R WCI 22 Atlantic City FAIR 27 17 66 N7 30.38R WCI 19 Wrightstown FAIR 25 16 68 N5 30.37R WCI 19 Toms River FAIR 26 18 71 NW3 30.40R Belmar FAIR 27 17 66 NW6 30.40R WCI 20 $$ PAZ047>061-062-071-171300- Eastern Pennsylvania CITY SKY/WX TMP DP RH WIND PRES REMARKS Philadelphia MOCLDY 29 15 56 N12G22 30.40R WCI 19 Allentown FAIR 24 14 65 CALM 30.39R Scranton FAIR 20 15 81 SE3 30.33R $$ CTZ002-004>006-009-010-012-RIZ004-006-007-MAZ004-011-015-171300- Southern New England In CT CITY SKY/WX TMP DP RH WIND PRES REMARKS Bradley Intl FAIR 24 12 60 NE6 30.38R WCI 17 Hartford FAIR 29 12 49 N8 30.39R WCI 21 Danbury FAIR 26 16 65 CALM 30.38R Wtrbury/Oxford FAIR 24 16 71 N6 30.35R WCI 17 Norwalk Harbor N/A N/A N/A N/A N5 N/A Bridgeport FAIR 29 16 58 N7 30.39R WCI 22 Meriden FAIR 28 15 58 N5 30.39R WCI 23 New Haven FAIR 28 17 63 N3 30.39R Chester FAIR 27 14 59 N5 30.36R WCI 21 Groton FAIR 29 12 49 N6 30.38R WCI 23 Willimantic FAIR 24 14 65 S3 30.38R In RI CITY SKY/WX TMP DP RH WIND PRES REMARKS Providence FAIR 28 18 66 N8 30.38R WCI 20 Block Island FAIR 30 16 56 N8 30.38R WCI 22 Westerly FAIR 30 11 45 N7 30.38R WCI 23 In MA CITY SKY/WX TMP DP RH WIND PRES REMARKS Boston FAIR 27 12 53 NW9 30.38R WCI 18 Worcester FAIR 20 12 71 NW6 30.32R WCI 12 Westfield FAIR 20 15 81 N6 30.37R WCI 12 Provincetown FAIR 29 16 58 N15 30.38R WCI 18 Nantucket FAIR 31 20 63 N12 30.35R WCI 22 $$ ANZ330-335-338-340-345-350-353-355-171300- Coastal Marine Observations STATION/POSITION TIME SKY/WX TEMP WIND PRES VSBY WAVE AIR SEA DIR/SP/G HT/PER (UTC) (F) (DEG/KT/KT) (MB) (MI) (FT/S) NY Harb Entrance 1150 33 39 360/ 12/ 16 1028.7 2/ 8 20 S Fire Island 1150 34 41 10/ 14/ 17 1028.6 3/ 4 15 E Barnegat Li 1130 41 N/A 4/ 5 Hudson Canyon 1150 39 46 30/ 12/ 14 1027.8 5/ 6 Kings Point 1148 30 36 10/ 8/ 9 1030.2 Execution Rocks NOT AVBL Western LI Sound NOT AVBL Central LI Sound 1130 32 360/ 10/ 14 N/A 1 Robbins Reef 1148 29 340/ 7/ 9 1030.0 $$ >>>>>>>>>>>>>>>>>>>>>>>>>>>> KEY <<<<<<<<<<<<<<<<<<<<<<<<<<< > < > SKY/WX - Sky Condition/Present Weather < > TMP - Temperature in Fahrenheit < > DP - Dew Point in Fahrenheit < > RH - Relative Humidity in Percent < > WIND - Direction (from) and Speed in MPH < > PRES - Mean Sea Level Pressure (inches of Hg) < > WCI - Wind Chill Index < > VSB - Visibility in Miles < > HX - Heat Index < > TC - Temperature in Celsius < > VRB - Varibale Wind Direction < > < >>>>>>>>>>>>>>>>>>>>>>>>>>>> KEY <<<<<<<<<<<<<<<<<<<<<<<<<<<

USA.gov is the U.S. government's official web portal to all federal, state and local government web resources and services.